Regional Weather Roundup
Issued by NWS

Home | Current Version | Previous Version | Text Only | Print | Product List | Glossary Off
Versions: 1 2 3 4 5 6 7 8 9 10 11 12 13 14 15 16 17 18 19 20 21 22 23 24 25 26 27

000
ASUS43 KDMX 230707
RWRIA

WEATHER ROUNDUP FOR IOWA
NATIONAL WEATHER SERVICE DES MOINES IA
200 AM CDT THU OCT 23 2014

NOTE: "FAIR" INDICATES FEW OR NO CLOUDS BELOW 12,000 FEET WITH NO
SIGNIFICANT WEATHER AND/OR OBSTRUCTIONS TO VISIBILITY.

* - THESE STATIONS ARE NOT NWS STATIONS...THUS NOT UNDER NWS
QUALITY CONTROL.  THEY ALSO DO NOT REPORT WEATHER SUCH
AS PRECIPITATION OR FOG.

IAZ001>003-012>014-020>022-031>034-043>046-230800-
   NORTHWEST IOWA

CITY           SKY/WX    TMP DP  RH WIND       PRES   REMARKS
CARROLL *      CLOUDY    55  54  94 S12       30.04S
CHEROKEE *     RAIN      57  57 100 CALM      30.01S
DENISON *        N/A     57  57 100 S14G22    30.00S
LE MARS *      CLOUDY    57  57 100 NW5       30.02S
ORANGE CITY *  FOG       57  55  94 CALM      30.01F VSB 1/2
SHELDON *      CLOUDY    57  57 100 W5        30.00F FOG
SIOUX CITY     CLOUDY    59  58  96 W5        30.01F FOG
SPENCER        LGT RAIN  57  56  96 SW6       30.01F FOG
STORM LAKE *   DRIZZLE   57  55  94 S9G16     30.01F
$$

IAZ055>058-069>071-079>083-090>094-230800-
   SOUTHWEST IOWA

CITY           SKY/WX    TMP DP  RH WIND       PRES   REMARKS
ATLANTIC *     CLOUDY    57  54  88 S9G15     30.05F
AUDUBON *      RAIN      55  50  82 S12       30.06S
CLARINDA *     CLOUDY    57  57 100 S9G15     30.09R
COUNCIL BLFS * CLOUDY    61  61 100 S10       30.02S FOG
CRESTON *      LGT RAIN  54  52  94 S6        30.09F
HARLAN  *      CLOUDY    57  57 100 S12       30.06F
LAMONI         CLOUDY    55  44  66 SW10      30.11R
RED OAK *      CLOUDY    59  57  94 SE8       30.05F
SHENANDOAH *   CLOUDY    61  59  94 SE7       30.06S FOG
$$

IAZ047>049-059>061-072>074-084-230800-
   CENTRAL IOWA

CITY           SKY/WX    TMP DP  RH WIND       PRES   REMARKS
AMES           LGT RAIN  53  49  86 S9        30.07F FOG
ANKENY *       LGT RAIN  55  46  71 SE7       30.09F
CHARITON *     CLOUDY    54  43  66 S13G21    30.09F
DES MOINES     RAIN      56  47  71 S8        30.10F
GRINNELL*      CLOUDY    52  41  66 SW6       30.12R
KNOXVILLE *    CLOUDY    54  43  66 W7        30.11R
MARSHALLTOWN   CLOUDY    53  42  66 S7        30.11F
PELLA *        CLOUDY    52  43  71 NW6       30.13R
PERRY *        LGT RAIN  54  52  94 S13       30.06F
$$

IAZ004>006-015-016-023>025-035-036-230800-
   NORTH CENTRAL IOWA

CITY           SKY/WX    TMP DP  RH WIND       PRES   REMARKS
ALGONA *       CLOUDY    54  52  94 S10       30.03F
CLARION *      CLOUDY    52  52 100 S12G17    30.05S
ESTHERVILLE    CLOUDY    55  54  96 S9        30.01F
FORT DODGE *   CLOUDY    55  50  82 S13       30.05F
MASON CITY     CLOUDY    51  44  77 S12       30.07F
FOREST CITY *  CLOUDY    52  46  82 S9        30.05S
IOWA FALLS *   RAIN      50  46  87 S8        30.09S
$$

IAZ007>011-017>019-026>030-037>042-050>054-066-230800-
   NORTHEAST IOWA

CITY           SKY/WX    TMP DP  RH WIND       PRES   REMARKS
CEDAR RAPIDS   CLEAR     49  40  71 S10       30.12F
CHARLES CITY * CLOUDY    50  43  76 S10       30.10S
CLINTON *      PTCLDY    39  34  81 SE6       30.21F WCI  35
DECORAH *      CLOUDY    50  41  71 VRB8      30.11F
DUBUQUE        PTCLDY    44  37  76 S16       30.15F
MONTICELLO *   CLEAR     45  39  81 SE9       30.15F
OELWEIN *      CLOUDY    48  41  76 S6        30.14R
WATERLOO       CLOUDY    51  40  65 S5        30.12F
$$

IAZ064-065-067-068-078-230800-
   EAST CENTRAL IOWA

CITY           SKY/WX    TMP DP  RH WIND       PRES   REMARKS
DAVENPORT      PTCLDY    43  35  73 SE9       30.18F
IOWA CITY      CLEAR     44  39  82 SE8       30.16F
MT. PLEASANT * CLEAR     41  37  87 SE5       30.15F
MUSCATINE *    CLEAR     37  34  87 CALM      30.17F
QUAD CITIES    PTCLDY    42  35  76 SE5       30.18F
$$

IAZ062-063-075>077-085>089-095>099-230800-
   SOUTHEAST IOWA

CITY           SKY/WX    TMP DP  RH WIND       PRES   REMARKS
BURLINGTON     CLEAR     47  40  76 S12       30.16F
FAIRFIELD *    PTCLDY    48  41  76 S10       30.13F
FORT MADISON * CLEAR     48  43  81 S7        30.17F
KEOKUK *       CLEAR     46  41  81 SE7       30.16F
OSKALOOSA *      N/A     50  41  71 S10       30.12S
CENTERVILLE *  PTCLDY    50  43  76 SE8       30.13F
OTTUMWA        PTCLDY    50  40  68 S9        30.12F
WASHINGTON *   CLEAR     45  41  87 SE7       30.15S
$$

ABBREVIATIONS USED IN REMARKS
   TC - TEMPERATURES IN CELSIUS
  WCI - WIND CHILL INDEX
   HX - HEAT INDEX
  VSB - VISIBILITY
$$




USA.gov is the U.S. government's official web portal to all federal, state and local government web resources and services.